User: anonymous   Login
Location: Unspecified
(0.0000°N, 0.0000°E)
Time: 06:58:31
(UTC+00:00)
Language:

PRISM - Orbit

View from above orbital plane
View from above orbital plane
View from above satellite
View from above satellite

Ground track
Ground track

The orbit data is extracted from the following two-line orbital elements,

1 33493U 09002B   17202.88448126 +.00000681 +00000-0 +66814-4 0  9990
2 33493 098.1646 086.7778 0014610 333.0977 026.9486 14.95714143460964
Epoch (UTC): 21 July 2017 21:13:39
Eccentricity: 0.0014610
inclination: 98.1646°
perigee height: 570 km
apogee height: 590 km
right ascension of ascending node: 86.7778°
argument of perigee: 333.0977°
revolutions per day: 14.95714143
mean anomaly at epoch: 26.9486°
orbit number at epoch: 46096

The dashed part of the orbit path shows where the satellite is in the earth's shadow,  

DLR